sat.trackr.live / text

‹ back to catalog

STARLINK-36151

NORAD 67123 · 2025-299X

PAYLOAD ACTIVE UNKNOWN

§ Identity

Operator
Country
US
Launch date
2025-12-15
Launch site
AFETR
Launch vehicle
Mass (kg)
RCS (m²)

Purposes: comms

External: N2YO · Heavens-Above · Gunter

§ Orbital elements

Epoch: 2026-09-19T09:34:39.399168Z

Period
94.27 min
Inclination
42.9996°
Eccentricity
0.0000700
Mean motion
15.27586205 rev/d
Perigee alt
482.6 km
Apogee alt
483.5 km
Semi-major
6,861.2 km
B*
5.6883e-4
RAAN
154.8437°
Arg perigee
305.9858°
Mean anomaly
54.0929°
Rev number
4,274

§ Raw data

STARLINK-361511 67123U 25299X   26262.39906712  .00015427  00000+0  56883-3 0  99922 67123  42.9996 154.8437 0000700 305.9858  54.0929 15.27586205 42744

JSON: /api/v1/satellites/67123 · /tle

For live sub-satellite position, see the globe view (requires WebGL).

§ Visibility from observer

Set your observer location to see the next 7 days of passes ≥ 10°. The values pass through the URL so the page stays shareable.

No JS? Fill the form by hand. The geolocation button needs JavaScript.